Theta_e
328 327 328 327 327 327 325 320 316 311 312 318 320 324 326 324 329 334 327 334 336 335 334 333 334 335 336 337 337 337 337 336 336 336 336 333 332 332
330 330 328 327 328 328 326 324 319 316 313 318 321 325 325 327 329 331 328 333 335 335 334 333 333 334 335 336 336 335 335 335 334 334 334 334 335 333
332 329 329 329 328 326 329 326 324 322 318 319 323 325 328 326 328 330 330 328 330 333 334 333 331 332 333 333 333 334 334 334 333 333 334 334 334 334
332 331 329 334 328 326 329 326 325 325 322 319 321 323 324 326 327 327 330 333 330 333 332 332 331 330 329 329 328 329 328 330 330 330 331 332 333 333
333 331 330 328 331 328 328 327 328 328 325 322 322 324 325 327 325 326 326 327 328 334 330 329 328 327 326 325 323 322 321 322 323 324 325 327 329 331
334 333 331 331 332 330 331 332 327 325 324 323 322 322 322 324 322 321 318 320 322 326 329 328 328 327 325 323 324 325 321 318 317 317 318 319 322 324
333 334 334 336 337 333 331 330 328 326 324 322 321 320 320 319 319 319 318 319 319 320 320 320 318 316 318 320 322 326 323 321 318 317 316 315 315 317
332 332 334 339 338 334 333 332 330 326 323 322 320 318 318 319 320 319 317 314 312 318 315 314 314 314 315 315 321 322 321 321 319 318 317 316 315 315
334 333 333 338 336 335 331 330 329 329 329 326 321 321 319 320 319 317 316 315 314 318 313 309 312 311 316 318 321 322 321 320 318 317 316 316 315 313
335 334 334 334 335 332 332 329 330 329 327 327 325 326 323 323 322 321 319 316 314 314 313 308 311 311 314 315 321 322 320 318 317 316 315 313 311 310
337 337 338 333 329 326 330 326 325 326 328 325 325 325 323 324 324 318 317 312 310 310 311 310 310 309 309 309 310 316 316 315 313 315 315 314 311 309
329 332 327 331 323 321 328 325 323 325 324 321 320 320 320 320 322 319 315 310 308 306 311 310 307 304 303 301 303 305 308 312 312 311 312 312 310 313
328 330 332 321 316 314 318 325 322 319 320 314 313 313 312 313 314 316 318 316 311 310 313 310 304 302 299 300 304 308 310 313 314 315 311 309 308 310
329 332 329 316 311 311 317 317 316 316 312 310 309 309 309 308 309 310 310 315 318 314 314 308 304 303 301 301 303 308 310 310 311 312 313 311 309 309
333 325 313 309 310 313 316 314 312 310 308 307 307 308 308 307 306 305 305 303 302 301 305 301 304 301 303 304 307 305 306 306 309 309 310 311 311 311
319 317 314 313 313 315 311 311 310 308 307 308 308 308 307 303 303 302 300 299 296 297 301 302 303 307 306 306 305 307 307 302 307 309 310 309 310 311
317 317 313 311 311 310 310 309 308 307 308 309 309 307 304 302 301 299 298 296 294 295 297 299 300 305 307 307 305 305 305 306 308 307 307 306 306 307
316 312 311 310 310 309 308 309 309 311 309 310 309 304 301 301 298 297 297 295 294 295 295 295 301 301 300 302 310 304 304 304 306 306 306 303 302 304
314 313 312 311 312 312 310 309 310 312 312 307 303 300 298 296 297 296 295 295 295 293 294 295 300 297 295 295 301 309 301 304 304 304 304 302 301 301
312 311 310 310 310 310 310 307 304 300 298 297 296 298 296 297 295 294 294 294 293 293 294 300 299 297 296 296 298 303 305 302 303 301 300 302 302 304
306 306 307 308 306 305 304 303 301 299 298 296 294 296 297 295 293 293 295 297 297 293 294 295 299 305 300 299 296 296 300 304 304 300 300 299 296 296
308 305 305 305 304 304 302 301 299 298 296 296 296 296 295 294 294 294 294 293 294 294 294 295 297 297 297 296 293 294 297 301 303 304 305 302 296 292
306 306 304 304 304 303 300 299 297 296 295 295 294 294 294 293 294 294 293 295 294 293 293 293 294 296 296 294 295 294 295 297 297 297 298 303 301 300
Wind_Speed
5 4 3 3 2 2 2 3 5 3 3 3 1 2 4 4 7 5 6 10 13 13 12 13 14 14 13 13 13 12 13 13 13 12 12 12 11 11
4 5 3 2 2 2 2 2 2 4 1 3 3 2 1 2 6 6 7 10 11 10 12 13 13 13 13 13 14 15 15 15 15 14 14 13 13 13
5 6 7 5 3 2 1 2 1 3 3 3 3 2 2 2 4 3 5 5 5 10 12 13 14 14 13 13 13 16 18 18 17 16 15 15 14 13
7 6 7 3 5 5 3 3 2 2 4 4 2 2 4 3 4 5 5 4 3 6 8 8 11 11 11 12 13 14 14 16 17 15 15 14 15 15
8 7 7 6 5 4 4 4 3 2 2 2 3 2 3 2 2 2 3 3 2 7 8 9 8 7 7 8 9 9 10 11 12 14 14 15 16 15
7 8 8 7 7 7 5 5 4 3 2 2 2 3 2 2 0 1 3 2 3 3 4 6 4 4 6 8 7 7 10 11 11 12 13 14 17 18
7 7 7 9 11 9 5 5 5 4 4 3 3 1 3 2 3 2 2 2 3 3 3 3 3 5 7 7 9 12 11 11 11 12 12 12 14 15
9 7 7 11 12 13 11 8 8 6 4 3 3 4 5 4 4 4 3 2 3 2 2 4 1 5 6 5 13 14 12 12 12 12 12 14 14 13
11 8 7 7 9 6 7 6 7 8 8 5 5 6 5 6 4 3 5 4 5 4 3 4 2 4 5 6 13 14 14 14 13 10 12 13 14 14
8 8 7 6 6 5 5 6 7 7 7 5 8 9 7 5 5 4 3 3 2 4 4 4 2 5 4 5 13 14 14 13 12 13 12 12 14 16
8 7 8 7 8 9 6 6 6 7 5 11 10 7 7 7 7 2 4 2 3 3 4 3 4 4 3 4 7 14 14 12 14 13 15 16 16 15
6 6 10 7 10 9 8 6 7 5 1 0 2 3 3 5 6 6 4 5 2 2 4 4 2 2 4 4 4 5 5 11 15 16 18 18 17 8
5 4 4 8 8 11 10 6 4 1 2 1 1 2 4 5 4 3 4 4 3 4 5 3 2 2 3 4 3 4 5 7 7 9 13 15 15 12
4 3 4 6 10 8 5 4 7 5 2 0 1 2 2 2 3 4 4 3 3 6 7 3 4 4 3 3 5 4 4 5 7 9 6 8 12 16
3 3 7 7 8 6 6 8 7 3 3 2 2 2 2 3 4 3 2 3 5 5 5 3 5 4 4 4 6 4 4 4 6 5 5 8 10 10
6 5 6 5 4 5 3 4 4 4 4 4 4 3 2 1 2 1 2 3 2 5 7 6 5 4 4 4 4 9 8 4 5 7 9 11 11 11
6 3 2 2 2 2 2 4 4 4 4 3 3 2 2 1 2 1 2 2 1 3 5 5 6 4 5 6 6 7 7 7 8 9 10 14 12 12
3 3 3 3 4 4 4 3 3 5 3 4 3 3 2 2 2 2 1 1 3 4 4 4 2 4 4 5 10 6 4 5 9 11 12 14 17 12
3 3 4 4 4 4 4 4 3 3 4 3 3 3 2 1 2 2 2 2 3 3 4 3 1 0 3 4 5 3 4 9 10 12 12 12 16 14
3 3 4 4 4 4 4 4 4 4 3 2 2 1 1 1 1 2 2 2 3 3 4 2 3 3 3 3 4 6 10 7 10 12 14 13 14 24
3 4 4 5 4 5 5 4 4 4 3 2 2 2 2 2 1 2 3 5 4 2 4 4 5 4 2 3 4 6 6 10 9 12 15 13 14 13
5 5 5 5 5 6 5 5 4 4 3 2 2 3 2 2 0 2 3 3 4 3 4 5 5 1 1 2 4 6 8 9 13 17 19 14 12 12
5 6 5 5 5 5 4 4 3 3 2 3 3 2 2 1 2 2 3 4 3 4 3 4 3 1 2 2 4 5 7 12 9 11 12 20 24 24
Wind_Direction
212 202 194 198 195 202 176 155 153 192 245 267 261 242 225 200 214 204 211 224 224 226 225 229 229 234 239 241 247 250 250 251 251 252 251 260 267 270
198 206 222 227 211 202 166 158 158 151 214 224 266 269 286 191 218 202 222 228 240 240 235 237 242 243 244 241 243 246 246 245 245 247 250 250 252 260
200 207 229 199 206 224 159 99 143 136 160 299 257 290 322 237 274 238 243 244 248 249 246 241 245 251 256 261 252 246 247 244 240 242 244 244 248 249
204 202 228 231 212 201 212 209 195 190 147 214 270 276 226 256 255 287 287 268 259 257 273 269 252 251 251 254 261 260 257 251 249 245 249 248 241 241
192 199 210 214 223 225 201 209 197 217 198 179 259 260 259 261 288 251 241 265 269 273 289 295 297 283 271 276 282 276 270 258 249 245 243 248 255 251
192 205 202 205 212 218 215 214 201 211 218 232 253 265 271 308 60 270 316 329 303 317 305 278 309 317 315 311 306 292 283 277 262 253 250 247 253 255
194 201 210 215 209 205 189 217 211 223 229 224 262 272 252 263 220 218 233 294 293 253 292 308 333 317 312 300 285 278 273 273 275 273 260 251 252 248
199 210 219 218 223 214 210 195 201 205 228 194 223 226 250 214 206 200 197 200 295 250 154 276 233 292 292 293 282 282 273 272 266 262 259 264 263 252
199 199 220 228 211 201 213 213 228 236 230 203 225 219 237 213 201 209 204 198 217 245 155 263 198 259 264 270 269 272 273 275 278 269 254 255 249 241
199 197 204 217 205 197 216 213 236 244 229 213 217 241 219 244 207 214 230 222 295 281 145 238 228 237 257 256 264 264 271 277 273 274 275 261 246 250
204 195 205 209 207 200 188 209 242 247 239 236 240 277 275 258 230 157 258 181 262 267 219 186 257 256 238 262 263 264 269 275 277 272 274 270 269 265
192 209 206 204 203 219 200 212 238 263 300 302 27 334 315 285 279 205 208 217 206 292 261 170 247 227 293 250 264 266 265 267 268 274 274 274 271 275
191 209 221 217 210 213 201 199 209 128 221 158 296 322 323 306 293 256 208 186 192 226 244 152 248 266 212 281 269 260 236 257 263 266 259 259 262 253
196 194 234 228 211 204 181 151 170 189 145 197 308 297 291 288 297 309 312 267 234 235 277 187 234 202 232 278 264 280 257 249 244 257 261 253 257 256
181 154 121 137 142 138 179 177 168 146 169 197 244 263 217 258 301 308 294 260 267 262 251 223 199 255 207 231 279 262 281 266 278 273 275 284 285 282
120 97 88 106 130 122 122 167 180 180 183 185 211 233 280 257 306 299 307 321 344 303 310 296 304 234 280 250 240 286 294 275 285 291 284 288 287 282
123 101 103 109 136 163 203 204 199 197 204 204 214 222 230 286 273 301 272 305 247 280 292 312 310 260 237 246 291 283 287 292 296 299 304 294 291 291
109 131 175 181 191 209 222 236 222 230 231 205 201 171 211 226 266 293 241 240 269 285 287 271 315 343 338 302 218 272 280 278 304 300 294 294 293 297
125 160 182 185 216 219 214 198 221 222 181 164 158 165 176 242 246 272 311 275 305 294 281 259 306 4 302 288 285 225 261 306 304 301 306 297 296 302
153 169 196 194 218 201 175 150 137 121 105 139 165 166 132 225 283 316 316 293 292 294 299 277 248 225 213 256 299 290 302 298 310 308 310 304 295 294
182 191 171 148 141 124 122 128 127 143 170 189 190 175 176 147 295 284 312 312 286 282 294 276 268 216 254 315 316 299 296 299 305 309 312 312 317 314
160 143 144 137 137 139 148 153 152 164 189 217 211 170 136 140 221 315 325 313 310 277 260 271 296 337 339 231 286 288 299 313 319 313 314 332 325 319
148 147 149 149 148 147 149 152 162 164 187 176 150 150 172 83 354 313 308 307 303 317 296 306 318 283 254 242 277 290 297 319 320 325 332 342 340 340